When you browse on this site, cookies collect data to enhance your experience and personalize the content and advertising you see.
Visit our Privacy Policy to learn more. By continuing to use the site, you agree to this use of cookies and data.
  • In Latvia
  • List of Countries
  • For 7 days
  • Water Temperature
  • Satellite Maps
  • Weather Map
  • Weather Widgets
  • user-avatar
    Login

    Hourly Weather Eisenstadt

    Today, 24 May, Friday

    Time Temperature Precipitation Wind Pressure Humidity
    00:00 +10°C° 0 mm 2 mps 722 mmHg 69%
    01:00 +9°C° 0 mm 2 mps 722 mmHg 71%
    02:00 +9°C° 0 mm 2 mps 722 mmHg 73%
    03:00 +8°C° 0 mm 2 mps 722 mmHg 75%
    04:00 +8°C° 0 mm 2 mps 722 mmHg 76%
    05:00 +10°C° 0 mm 2 mps 722 mmHg 72%
    06:00 +13°C° 0 mm 2 mps 722 mmHg 68%
    07:00 +14°C° 0 mm 2 mps 722 mmHg 63%
    08:00 +16°C° 0 mm 3 mps 722 mmHg 59%
    09:00 +17°C° 0 mm 3 mps 722 mmHg 54%
    10:00 +19°C° 0 mm 3 mps 722 mmHg 50%
    11:00 +19°C° 0 mm 3 mps 721 mmHg 49%
    12:00 +20°C° 0 mm 3 mps 721 mmHg 47%
    13:00 +20°C° 0 mm 3 mps 721 mmHg 46%
    14:00 +20°C° 0 mm 3 mps 721 mmHg 47%
    15:00 +20°C° 0 mm 3 mps 720 mmHg 48%
    16:00 +20°C° 0 mm 3 mps 720 mmHg 49%
    17:00 +19°C° 0 mm 2 mps 720 mmHg 57%
    18:00 +17°C° 0 mm 2 mps 720 mmHg 65%
    19:00 +16°C° 0 mm 1 mps 719 mmHg 73%
    20:00 +14°C° 0 mm 1 mps 720 mmHg 75%
    21:00 +13°C° 0 mm 1 mps 720 mmHg 76%
    22:00 +12°C° 0 mm 1 mps 720 mmHg 78%
    23:00 +12°C° 0 mm 1 mps 720 mmHg 77%

    Tomorrow, 25 May, Saturday

    Time Temperature Precipitation Wind Pressure Humidity
    00:00 +12°C° 0 mm 2 mps 720 mmHg 77%
    01:00 +12°C° 0 mm 2 mps 720 mmHg 76%
    02:00 +11°C° 0 mm 1 mps 720 mmHg 77%
    03:00 +11°C° 0 mm 1 mps 720 mmHg 77%
    04:00 +11°C° 0 mm 1 mps 720 mmHg 78%
    05:00 +13°C° 0 mm 1 mps 720 mmHg 73%
    06:00 +15°C° 0 mm 1 mps 721 mmHg 68%
    07:00 +16°C° 0 mm 0 mps 721 mmHg 63%
    08:00 +19°C° 0 mm 1 mps 721 mmHg 59%
    09:00 +21°C° 0 mm 1 mps 721 mmHg 54%
    10:00 +22°C° 0 mm 1 mps 721 mmHg 50%
    11:00 +23°C° 0 mm 1 mps 721 mmHg 50%
    12:00 +23°C° 0 mm 1 mps 721 mmHg 49%
    13:00 +23°C° 0 mm 2 mps 720 mmHg 48%
    14:00 +23°C° 0.1 mm 2 mps 720 mmHg 51%
    15:00 +23°C° 0.1 mm 2 mps 720 mmHg 54%
    16:00 +23°C° 0.1 mm 2 mps 719 mmHg 57%
    17:00 +21°C° 0.5 mm 2 mps 719 mmHg 65%
    18:00 +20°C° 0.5 mm 1 mps 719 mmHg 72%
    19:00 +19°C° 0.5 mm 1 mps 719 mmHg 79%
    20:00 +18°C° 1 mm 1 mps 719 mmHg 83%
    21:00 +16°C° 1 mm 1 mps 719 mmHg 87%
    22:00 +15°C° 1 mm 1 mps 719 mmHg 90%
    23:00 +15°C° 1.1 mm 1 mps 719 mmHg 92%

    Day after tomorrow, 26 May, Sunday

    Time Temperature Precipitation Wind Pressure Humidity
    00:00 +14°C° 1.1 mm 1 mps 719 mmHg 93%
    01:00 +14°C° 1.1 mm 1 mps 719 mmHg 95%
    02:00 +13°C° 0 mm 2 mps 719 mmHg 95%
    03:00 +13°C° 0 mm 2 mps 719 mmHg 95%
    04:00 +13°C° 0 mm 2 mps 719 mmHg 95%
    05:00 +13°C° 0 mm 2 mps 720 mmHg 92%
    06:00 +14°C° 0 mm 2 mps 720 mmHg 89%
    07:00 +15°C° 0 mm 2 mps 720 mmHg 86%
    08:00 +15°C° 0.1 mm 2 mps 720 mmHg 83%
    09:00 +16°C° 0.1 mm 2 mps 721 mmHg 81%
    10:00 +16°C° 0.1 mm 2 mps 721 mmHg 78%
    11:00 +17°C° 0.2 mm 2 mps 721 mmHg 75%
    12:00 +18°C° 0.2 mm 2 mps 721 mmHg 72%
    13:00 +18°C° 0.2 mm 2 mps 720 mmHg 68%
    14:00 +19°C° 0.3 mm 2 mps 720 mmHg 66%
    15:00 +20°C° 0.3 mm 1 mps 720 mmHg 64%
    16:00 +21°C° 0.3 mm 1 mps 720 mmHg 61%
    17:00 +20°C° 0.4 mm 1 mps 720 mmHg 68%
    18:00 +18°C° 0.4 mm 1 mps 720 mmHg 74%
    19:00 +16°C° 0.4 mm 1 mps 720 mmHg 80%
    20:00 +15°C° 0 mm 1 mps 720 mmHg 82%
    21:00 +14°C° 0 mm 1 mps 720 mmHg 85%
    22:00 +13°C° 0 mm 1 mps 721 mmHg 87%
    23:00 +12°C° 0 mm 1 mps 720 mmHg 86%

    27 May, Monday

    Time Temperature Precipitation Wind Pressure Humidity
    00:00 +12°C° 0 mm 1 mps 720 mmHg 86%
    01:00 +12°C° 0 mm 1 mps 720 mmHg 86%
    02:00 +12°C° 0 mm 1 mps 720 mmHg 86%
    03:00 +11°C° 0 mm 1 mps 720 mmHg 86%
    04:00 +11°C° 0 mm 1 mps 720 mmHg 86%
    05:00 +13°C° 0 mm 1 mps 720 mmHg 83%
    06:00 +15°C° 0 mm 1 mps 720 mmHg 80%
    07:00 +16°C° 0 mm 1 mps 720 mmHg 77%
    08:00 +18°C° 0 mm 2 mps 720 mmHg 69%
    09:00 +19°C° 0 mm 3 mps 720 mmHg 62%
    10:00 +21°C° 0 mm 4 mps 720 mmHg 55%
    11:00 +21°C° 0 mm 4 mps 720 mmHg 54%
    12:00 +22°C° 0 mm 4 mps 719 mmHg 54%
    13:00 +23°C° 0 mm 4 mps 719 mmHg 53%
    14:00 +22°C° 0 mm 4 mps 719 mmHg 58%
    15:00 +21°C° 0 mm 4 mps 718 mmHg 63%
    16:00 +20°C° 0 mm 4 mps 718 mmHg 68%
    17:00 +19°C° 0 mm 3 mps 717 mmHg 73%
    18:00 +18°C° 0 mm 2 mps 717 mmHg 78%
    19:00 +17°C° 0 mm 2 mps 717 mmHg 82%
    20:00 +17°C° 0 mm 2 mps 717 mmHg 84%
    21:00 +16°C° 0 mm 1 mps 717 mmHg 86%
    22:00 +15°C° 0 mm 1 mps 717 mmHg 87%
    23:00 +15°C° 0.6 mm 1 mps 716 mmHg 90%

    28 May, Tuesday

    Time Temperature Precipitation Wind Pressure Humidity
    00:00 +15°C° 0.6 mm 1 mps 716 mmHg 92%
    01:00 +14°C° 0.6 mm 0 mps 716 mmHg 94%
    02:00 +14°C° 0.5 mm 0 mps 716 mmHg 95%
    03:00 +14°C° 0.5 mm 0 mps 715 mmHg 96%
    04:00 +14°C° 0.5 mm 0 mps 715 mmHg 96%
    05:00 +14°C° 0.1 mm 0 mps 715 mmHg 96%
    06:00 +15°C° 0.1 mm 1 mps 715 mmHg 96%
    07:00 +16°C° 0.1 mm 1 mps 715 mmHg 96%
    08:00 +16°C° 0.2 mm 2 mps 715 mmHg 92%
    09:00 +17°C° 0.2 mm 2 mps 714 mmHg 87%
    10:00 +18°C° 0.2 mm 3 mps 714 mmHg 83%
    11:00 +19°C° 0.5 mm 3 mps 714 mmHg 79%
    12:00 +20°C° 0.5 mm 3 mps 714 mmHg 75%
    13:00 +21°C° 0.5 mm 4 mps 714 mmHg 71%
    14:00 +21°C° 1.5 mm 3 mps 713 mmHg 72%
    15:00 +21°C° 1.5 mm 3 mps 713 mmHg 73%
    16:00 +21°C° 1.5 mm 2 mps 713 mmHg 74%
    17:00 +19°C° 1.8 mm 2 mps 713 mmHg 79%
    18:00 +18°C° 1.8 mm 2 mps 713 mmHg 85%
    19:00 +16°C° 1.8 mm 2 mps 713 mmHg 90%
    20:00 +16°C° 0.2 mm 2 mps 714 mmHg 90%
    21:00 +15°C° 0.2 mm 2 mps 714 mmHg 91%
    22:00 +14°C° 0.2 mm 2 mps 715 mmHg 91%
    23:00 +14°C° 0 mm 2 mps 715 mmHg 90%

    29 May, Wednesday

    Time Temperature Precipitation Wind Pressure Humidity
    00:00 +14°C° 0 mm 2 mps 715 mmHg 90%
    01:00 +13°C° 0 mm 2 mps 716 mmHg 90%
    02:00 +13°C° 0 mm 1 mps 716 mmHg 90%
    03:00 +13°C° 0 mm 1 mps 716 mmHg 90%
    04:00 +13°C° 0 mm 1 mps 716 mmHg 89%
    05:00 +13°C° 0.2 mm 1 mps 717 mmHg 90%
    06:00 +14°C° 0.2 mm 1 mps 717 mmHg 90%
    07:00 +14°C° 0.2 mm 1 mps 717 mmHg 90%
    08:00 +15°C° 0.1 mm 1 mps 717 mmHg 86%
    09:00 +16°C° 0.1 mm 2 mps 718 mmHg 82%
    10:00 +17°C° 0.1 mm 2 mps 718 mmHg 77%
    11:00 +19°C° 0.1 mm 3 mps 718 mmHg 72%
    12:00 +20°C° 0.1 mm 3 mps 718 mmHg 66%
    13:00 +21°C° 0.1 mm 4 mps 718 mmHg 60%
    14:00 +22°C° 0.1 mm 4 mps 718 mmHg 59%
    15:00 +22°C° 0.1 mm 4 mps 718 mmHg 58%
    16:00 +22°C° 0.1 mm 4 mps 718 mmHg 57%
    17:00 +21°C° 0.2 mm 3 mps 718 mmHg 63%
    18:00 +20°C° 0.2 mm 3 mps 718 mmHg 70%
    19:00 +18°C° 0.2 mm 2 mps 718 mmHg 76%
    20:00 +17°C° 0.1 mm 2 mps 719 mmHg 80%
    21:00 +16°C° 0.1 mm 2 mps 719 mmHg 85%
    22:00 +15°C° 0.1 mm 2 mps 720 mmHg 89%
    23:00 +14°C° 0.2 mm 2 mps 720 mmHg 90%
    Show more